Preview of NWS' New Version of Forecast
This preview is not operational and should not be used for support decisions.

Regional Weather Roundup (RWR)

Issued by Gray - Portland, ME (GYX)

                            
000
ASUS41 KGYX 171010
RWRGYX
WEATHER ROUNDUP FOR MAINE AND NEW HAMPSHIRE
NATIONAL WEATHER SERVICE GRAY ME
500 AM EST THU JAN 17 2019

MEZ002-005-006-010-012-015-018-020-021-024-026-027-029-171100-
MAINE
  
CITY           SKY/WX    TMP DP  RH WIND       PRES   REMARKS
PORTLAND       FAIR      13   0  56 NW7       30.29R                  
SANFORD        FAIR      10  -3  55 W9G17     30.29R                  
BAR HARBOR     FAIR       7  -5  57 NW12G18   30.24R WCI  -8          
WISCASSET      FAIR      10  -2  58 VRB3      30.29R                  
ROCKLAND       FAIR       9  -3  58 NW8G16    30.25R                  
FRYEBURG       FAIR       5  -8  55 SW6       30.26R                  
LEWISTONAUBURN FAIR       8  -4  58 NW12      30.27R WCI  -7          
AUGUSTA        FAIR       6  -5  60 NW8       30.26R                  
WATERVILLE     FAIR       5  -6  60 MISG      30.23R                  
BANGOR         FAIR       5  -6  60 NW6       30.25R                  
GREENVILLE       N/A     -4 -14  62 NW14G25   30.07R WCI -24          
MILLINOCKET    FAIR       0 -12  57 W10G22    30.20R WCI -16          
HOULTON        FAIR      -2 -11  65 W7        30.14R                  
PRESQUE ISLE   FAIR      -3 -11  68 W10       30.14R WCI -20          
FRENCHVILLE    FAIR      -6 -16  61 NW13      30.05R WCI -25          
CARIBOU        FAIR      -4 -14  62 NW8       30.10R                  
$$

NHZ002-005-008-009-011-012-014-171100-
NEW HAMPSHIRE
  
CITY           SKY/WX    TMP DP  RH WIND       PRES   REMARKS
PORTSMOUTH     CLEAR     13  -7  40 W12       30.29R WCI  -1          
ROCHESTER      FAIR      11  -4  51 NW10      30.28R WCI  -3          
NASHUA         FAIR      14   3  61 N5        30.33R                  
MANCHESTER     FAIR      14  -1  51 NW10      30.31R WCI   1          
CONCORD        FAIR       9  -1  64 N5        30.32R                  
LACONIA        FAIR       6  -5  60 W8        30.30R                  
PLYMOUTH       FAIR       3  -5  69 CALM      30.31R                  
BERLIN         FAIR      -1  -9  68 CALM      30.21R                  
WHITEFIELD     FAIR      -7 -11  83 CALM      30.26R                  
JAFFREY        FAIR      12   1  61 CALM      30.24R                  
KEENE          FAIR      12   0  58 NW5       30.32R                  
LEBANON        FAIR      -9 -13  83 NE3       30.31R                  
MT WASHINGTON  PTCLDY   -15 -18  84 NW67G72     N/A  WCI -56          
$$

VTZ005-007-008-171100-
VERMONT
  
CITY           SKY/WX    TMP DP  RH WIND       PRES   REMARKS
ST JOHNSBURY     N/A     -1  -7  75 MISG      30.30R                  
MONTPELIER     FAIR      -1  -6  79 NW8       30.30R                  
BURLINGTON     FAIR       3  -6  66 NE7       30.38R                  
$$

MAZ007-012-024-CTZ003-RIZ002-NYZ038-NYZ072-171100-
SOUTHERN NEW ENGLAND AND NY
  
CITY           SKY/WX    TMP DP  RH WIND       PRES   REMARKS
BOSTON         FAIR      21   1  41 NW12      30.31R WCI   9          
WORCESTER      FAIR      15   0  51 NW10      30.23R WCI   2          
NANTUCKET      FAIR      29  15  56 N15       30.24R WCI  18          
PROVIDENCE     FAIR      24   3  40 N10       30.29R WCI  14          
HARTFORD       FAIR      20   2  45 NW16      30.31S WCI   6          
ALBANY         FAIR      12  -3  51 NW7       30.38R                  
NEW YORK CITY  MOCLDY    27   9  46 NW14      30.33R WCI  16          
$$

ANZ081-ANZ082-ANZ150-NHZ014-MEZ023>029-171100-
COASTAL MARINE OBSERVATIONS
  
STATION/POSITION TIME  TEMP    WIND        PRES    WAVE
                       AIR SEA DIR/SP/G            HT/PER
                 (UTC) (F)     (DEG/KT/KT) (MB)    (FT/S)
MOUNT DESERT ROC 1000   15     300/ 30/ 33 1022.9R
MATINICUS ROCK   0900   17     330/ 22/ 26 1022.7R
ISLE OF SHOALS   0900   16     300/ 24/ 27 1024.4R
JEFFREYS LEDGE   0938      43                N/A     5/ 6
CASHES LEDGE BUO 0950   22 40              1023.2R   8/ 7
$$

.............KEY..............
   WCI - WIND CHILL
   TC  - TEMPERATURE IN CELSIUS
   VSB - VISIBILITY IN MILES
   HX  - HEAT INDEX
   FAIR- INDICATES FEW OR NO CLOUDS BELOW 12,000 FT, WITH NO 
         SIGNIFICANT WEATHER AND/OR OBSTRUCTIONS TO VISIBILITY.